Погода в Шеппартоне

Австралия     36°22′52″S   145°24′03″E
темп.,
°C
ветер,
м/с
пор.,
м/с
влажн.,
%
обл.,
%
осадки,
мм/ч
давл.,
гПа
погр.,
м
9 декабря, чт
чт923:00+12ююз71261100 0.0 1015795
02:00+12ююз7116696 0.0 1013650
05:00+9ю478191 0.0 1011231
08:00+14ююв46656 0.0 1012418
11:00+20вюв574994 0.4 10111783
14:00+17вюв5963100 1.1 10121245
17:00+15ююв3974100 4.4 1012717
20:00+14ю81371100 0.7 1013861
10 декабря, пт
пт1023:00+13ю6127399 0.7 1014524
02:00+13ю487172 0.0 1014427
05:00+10ююз598362 0.0 1014269
08:00+13ю69629 0.0 1014529
11:00+20ю56364 0.0 10131480
14:00+25ююв67250 0.0 10112262
17:00+26ю77235 0.0 10102674
20:00+20ю710430 0.0 1012743
11 декабря, сб
сб1123:00+14ююз58710 0.0 1015249
02:00+11ю35820 0.0 1015137
05:00+10ююв23805 0.0 101551
08:00+14ююв23615 0.0 1017272
11:00+22вюв343926 0.0 10161827
14:00+25всв443030 0.0 10142570
17:00+26в332895 0.0 10122495
20:00+23в2236100 0.0 101336
12 декабря, вс
вс1223:00+18юв35514 0.0 1015155
02:00+14вюв236713 0.0 101561
05:00+12вюв37710 0.0 1015180
08:00+16всв58550 0.0 1016421
11:00+23ссв44410 0.0 10151514
14:00+29ссз132626 0.0 10122959
17:00+30зюз14205 0.0 10103250
20:00+26ю23264 0.0 101043
13 декабря, пн
пн1323:00+20в35430 0.0 101285
02:00+18в59540 0.0 1011181
05:00+16в510610 0.0 1011187
08:00+20всв69490 0.0 1013373
11:00+28ссв45274 0.0 10121153
14:00+34сз25155 0.0 10092768
17:00+36ссз251288 0.0 10064232
20:00+31юз022067 0.0 100741